Rockford, IL

1:56 AM CDT on May 24, 2018 (GMT -0500)
Greater Rockford

Weather History for KRFD - October, 2014

Change the Weather History Date:

Tuesday, October 28, 2014

  Actual Average Record
Temperature  
Mean Temperature 55 °F 48 °F  
Max Temperature 64 °F 58 °F 77 °F (1950)
Min Temperature 45 °F 38 °F 9 °F (1925)
Degree Days  
Heating Degree Days 10 18  
Month to date heating degree days 350 366  
Since 1 July heating degree days 491 497  
Cooling Degree Days 0 0  
Month to date cooling degree days 3 8  
Year to date cooling degree days 729 819  
Growing Degree Days 2 (Base 50)    
Moisture  
Dew Point 39 °F    
Average Humidity 58    
Maximum Humidity 73    
Minimum Humidity 43    
Precipitation  
Precipitation T in 0.09 in 1.37 in (1970)
Month to date precipitation 2.69 2.41  
Year to date precipitation 30.94 31.42  
Snow  
Snow 0.00 in 0.00 in 0.20 in (1925)
Month to date snowfall T 0.1  
Since 1 July snowfall T 0.1  
Since 1 September snowfall T 0.1  
Snow Depth 0.00 in    
Sea Level Pressure  
Sea Level Pressure 29.87 in    
Wind  
Wind Speed 14 mph (West)    
Max Wind Speed 25 mph    
Max Gust Speed 34 mph    
Visibility 10 miles    
Events Rain    
T = Trace of Precipitation, MM = Missing Value Source: NWS Daily Summary

Daily Weather History Graph

Daily Weather History Graph

Search for Another Location

Airport or City:

Astronomy

Oct. 28, 2014 Rise Set
Actual Time 7:24 AM CDT 5:55 PM CDT
Civil Twilight 6:55 AM CDT 6:24 PM CDT
Nautical Twilight 6:22 AM CDT 6:56 PM CDT
Astronomical Twilight 5:50 AM CDT 7:29 PM CDT
Moon 11:55 AM CDT (10/28) 9:59 PM CDT (10/28)
Length of Visible Light 11h 28m
Length of Day
10h 30m
Waxing Crescent, 24% of the Moon is Illuminated
Oct 28
Waxing Crescent
Oct 30
First Quarter
Nov 6
Full
Nov 14
Last Quarter
Nov 22
New

Hourly Weather History & Observations

Time (CDT) Temp. Windchill Dew Point Humidity Pressure Visibility Wind Dir Wind Speed Gust Speed Precip Events Conditions
12:54 AM 64.0 °F - 55.0 °F 73% 29.64 in 10.0 mi WSW 9.2 mph - N/A   Overcast
1:54 AM 62.1 °F - 52.0 °F 70% 29.66 in 10.0 mi West 11.5 mph - N/A   Overcast
2:54 AM 60.1 °F - 46.0 °F 60% 29.70 in 10.0 mi WNW 19.6 mph 23.0 mph N/A   Overcast
3:54 AM 57.0 °F - 44.1 °F 62% 29.73 in 10.0 mi WNW 24.2 mph 31.1 mph N/A   Overcast
4:54 AM 54.0 °F - 42.1 °F 64% 29.77 in 10.0 mi WNW 13.8 mph - N/A   Overcast
5:54 AM 53.1 °F - 39.9 °F 61% 29.81 in 10.0 mi WNW 8.1 mph - N/A   Overcast
6:54 AM 50.0 °F - 42.1 °F 74% 29.80 in 10.0 mi West 8.1 mph - 0.00 in Rain Light Rain
7:54 AM 48.9 °F - 41.0 °F 74% 29.82 in 10.0 mi West 12.7 mph - 0.00 in   Overcast
8:54 AM 48.9 °F - 39.0 °F 69% 29.84 in 10.0 mi West 17.3 mph - N/A   Scattered Clouds
9:54 AM 52.0 °F - 35.1 °F 53% 29.86 in 10.0 mi West 16.1 mph - N/A   Partly Cloudy
10:54 AM 53.1 °F - 34.0 °F 48% 29.88 in 10.0 mi West 17.3 mph 25.3 mph N/A   Partly Cloudy
11:54 AM 54.0 °F - 34.0 °F 47% 29.88 in 10.0 mi West 15.0 mph 25.3 mph N/A   Scattered Clouds
12:54 PM 55.9 °F - 35.1 °F 45% 29.89 in 10.0 mi West 18.4 mph 26.5 mph N/A   Scattered Clouds
1:54 PM 55.0 °F - 34.0 °F 45% 29.91 in 10.0 mi WSW 19.6 mph 29.9 mph N/A   Mostly Cloudy
2:54 PM 54.0 °F - 35.1 °F 49% 29.91 in 10.0 mi West 19.6 mph 26.5 mph N/A   Overcast
3:54 PM 53.1 °F - 34.0 °F 48% 29.93 in 10.0 mi West 16.1 mph 32.2 mph N/A   Overcast
4:54 PM 52.0 °F - 34.0 °F 50% 29.96 in 10.0 mi West 18.4 mph 24.2 mph N/A   Overcast
5:54 PM 51.1 °F - 34.0 °F 52% 29.98 in 10.0 mi WNW 13.8 mph 21.9 mph N/A   Overcast
6:54 PM 51.1 °F - 34.0 °F 52% 29.99 in 10.0 mi West 10.4 mph - N/A   Mostly Cloudy
7:54 PM 48.9 °F - 35.1 °F 59% 30.00 in 10.0 mi WSW 6.9 mph - N/A   Mostly Cloudy
8:54 PM 48.9 °F - 35.1 °F 59% 29.99 in 10.0 mi WSW 11.5 mph - N/A   Partly Cloudy
9:54 PM 46.9 °F - 34.0 °F 61% 29.99 in 10.0 mi West 11.5 mph - N/A   Partly Cloudy
10:54 PM 46.0 °F 41.0 °F 34.0 °F 63% 29.99 in 10.0 mi West 10.4 mph - N/A   Partly Cloudy
11:54 PM 46.0 °F 41.0 °F 34.0 °F 63% 29.98 in 10.0 mi West 10.4 mph - N/A   Mostly Cloudy